Timeline UpdatesTrip UpdatesNews PostsPvt Posts♥♥Travel TipsAdmin PostsConv PostsFollowed PostsChat RequestsBlog PostsPNR Posts

Disclaimer
Search
 
 
Sun Oct 26, 2014 01:15:31 ISTHomeTrainsΣChainsAtlasPNRForumGalleryNewsFAQTripsMembersLoginFeedback
No Recent News for this Train
Other Trains in the News **new
Latest...
⇐ Return Journey: Train# 59812

59811/Haldighati Passenger

Time-Table HAS CHANGED.
Oct 18 (7:12AM)
Change Departure Station:
Change Arrival Station:
Post a Train Travel TipPost a Train Travel Tip **new
Post a Comment/Question/Picture/VideoPost a Comment/Question/Picture/Video
Pantry/Catering
✕ NO Pantry Car
✓ Catering Avbl
Loco/Rake Reversals
KOTA/Kota Junction (5);
RSA - Rake Sharing
Comes to AF as 59811, departs as 59814
Rake/Coach Composition
Loco-SLR+Handicapped-GS1-GS2-GS3-GS4-GS5-S1-S2-S3-GS6-GS7-GS8-SLR; Total Length-13 Coaches
Loco
Rtm-Kota:- WDM 3A RTM shed Kota-AF:- WAM 4E BRC shed Re# 549005-21
News    PNR    Forum    Time-Table    Availability    Fare Chart    Map    Arr/Dep History    Trips    Gallery    ΣChains    X/O    Timeline    
Travel Time: 18h 2m    51 halts    Distance: 599 km    Avg Speed: 33 km/hr
Type: Passenger
Zone: WR/Western
Departs @ 08:30 (Avg 8m late)
Platform# ???
SMTWTFS
Ratlam Junction/RTM 
Arrives @ 02:32 +1 night (Avg 29m late)
Platform# ???
SMTWTFS
Dumariya/DY 

51 halts. 75 intermediate Stations between Ratlam Junction and Dumariya

Show ALL intermediate Stations  Show Old Time-Table

#TrkCodeStation NameX/OArrivesAvgDepartsAvgHaltPFDay#KmSpeedElevZoneAddress
1|--|RTMRatlam Junction (7)»  -09:55 08:30+8--10.060495mWRRatlam, Madhya Pradesh
2|--|NLINamli  10:10 08:43+1810:11 08:45+191 2m--112.954494mWRNamli, Madhya Pradesh
3|--|BRLABrayla ChaurasiX  10:22 08:58+1810:23 09:00+221 2m--124.528486mWRBadayla Chorasi Rd, Madhya Pradesh
4|--|JAOJaora (2)  10:32 09:18+1610:33 09:20+191 2m1132.960476mWRJaora, Madhya Pradesh
5|--|DODDhodhar  10:47 09:37+1710:48 09:39+171 2m--149.870478mWRDhodar, Madhya Pradesh
6|--|KCNRKachnara Road new halt!!  09:47+1409:49+142m--159.253498mWRSarsod, Madhya Pradesh
7|--|DLDDalauda  11:10 10:01+1611:11 10:03+161 2m--169.759469mWRDalauda, Madhya Pradesh
8|--|MDSMandsor (2)  11:23 10:18+1511:24 10:20+211 2m--184.352436mWRMandsaur, Madhya Pradesh
9|--|PIPPiplia (1)  11:40 10:38+2211:41 10:40+211 2m11100.048472mWRPanth Pipalia, Madhya Pradesh
10|--|MLGMalhargarhX  11:51 10:50+2211:52 10:52+221 2m--1108.052466mWRMalhargarh, Madhya Pradesh
11|--|HKLHarkia Khal  12:22 11:06+1812:23 11:08+181 2m--1120.229455mWRState Highway 31, Rajasthan
12|--|NMHNimach (3)  12:45 11:35+412:55 11:40+710 5m--1133.358490mWRMDR 11A, Madhya Pradesh
13|--|BIWKBisalwas KalanX  13:04 11:50+1513:05 11:52+161 2m--1143.117477mWRMDR 11A, Rajasthan
14|--|JWOJawad RoadX  13:15 12:16+413:16 12:18+91 2m--1149.831462mWRNayagaon, Rajasthan
15|--|NBHNimbahera (1)  13:26 12:38+113:27 12:40+91 2m11160.038441mWRNimbahera, Rajasthan
16|--|GRFGambhiri RoadO  13:36 12:53+813:37 12:55+101 2m11168.429441mWRNational Highway 79, Rajasthan
17|--|SMPShambhupura  13:47 13:14+413:48 13:16+51 2m--1177.621423mWRShambhupura, Rajasthan
18|-=|CORChittaurgarh Junction (5)X  14:00 13:50+014:10+110 20m--1189.315403mWRChittorgarh, Rajasthan
19|=-|CNAChanderiya (2)  14:38-214:40+02m--1196.252408mWRChittorgarh, Rajasthan
20|--|PSLIParsoli  15:18+515:20+42m--1229.353380mWCRNH 76, Rajasthan
21|--|MLGHMandalgarh  15:48+515:50+62m--1253.948382mWCRMandalgarh, Rajasthan
22|--|SMPAShampura  16:10+916:12+82m--1269.829395mWCRMandalgarh, Rajasthan
23|--|URMLUpramal  16:22+816:23+81m--1274.729390mWCRMDR 41, Rajasthan
24|--|JNRIJalindri  16:31+816:32+91m--1278.675 WCR
25|--|SNARSrinagar RajasthanX  16:58+1317:00+142m--1311.021259mWCRShreenagar RJ, Rajasthan
26|--|BUDIBundiO  17:48 17:30+217:50 17:35+22 5m--1321.314256mWCRBundi, Rajasthan
27|--|KOTAKota Junction (5)↵¶20:20+121:00+140m11359.041256mWCRKota, Rajasthan
28|--|GQLGurla  21:08+421:10+32m--1364.460251mWCRSH 33, Rajasthan
29/==/KPTNKeshorai PatanX  21:19 21:18+421:20+41 2m--1372.482243mWCRSH 33, Rajasthan
30/==/AREArnetha  21:29 21:28+521:30+41 2m--1383.369239mWCRShreepura, Rajasthan
31/==/KPZKaprenX  21:39 21:38+421:40+91 2m--1392.575234mWCRKota - Lalsot Mega Highway, Rajasthan
32/==/GKBGhataka VaranaXO  21:49 21:48+1321:50+121 2m--1402.570232mWCRSH 33, Rajasthan
33/==/LBNLaban (2)X  21:59 21:58+1422:00+131 2m--1411.957225mWCRBundi, Rajasthan
34/==/LKELakheri (3)X  22:09 22:08+1322:10+131 2m--1419.466228mWCRBundi, Rajasthan
35/==/IDGIndargarh Sumerganj Mandi (2)X  22:20+1522:22+212m--1430.478247mWCRIndargarh, Rajasthan
36/==/AMLIAmliX  22:32+2222:34+212m--1443.565233mWCRSawai Madhopur, Rajasthan
37/==/RWJRawania DungarXO  22:41+2222:43+322m--1451.156266mWCRSawai Madhopur, Rajasthan
38/==/KTAKushtala  22:52+3022:54+302m--1459.627283mWCRNH 116, Rajasthan
39/==/SWMSawai Madhopur Junction (4)  23:10+1423:15+165m--1466.777266mWCRSawai Madhopur, Rajasthan
40/==/RNTRanthambhore  23:23+2923:25+292m--1476.969248mWCRMDR 111, Rajasthan
41/==/MXLMokholiX  23:30 23:33+3323:35+315 2m--1486.165242mWCRMDR 111, Rajasthan
42/==/MLZMalarna  23:45+3123:47+302m--1496.929236mWCRSawai Madhopur, Rajasthan
43/==/NMDNomodaX  00:03 00:02+2300:04+221 2m--2504.064238mWCRMDR 111, Rajasthan
44/==/NNWNarayanpur Tatwara (2)  00:14 00:13+2200:15+211 2m--2513.780256mWCRSawai Madhopur, Rajasthan
45/==/LRULalpur UmriO  00:24 00:23+2300:25+391 2m--2524.313276mWCRSH 1, Rajasthan
46/==/GGCGangapur City (3)XO  00:55+1201:05+1310m--2530.669270mWCRGangapur, Rajasthan
47/==/COOChhoti Odai  01:17 01:16+2301:18+271 2m--2543.347257mWCRSH 25, Rajasthan
48/==/PDZPiliodaX  01:28+2601:30+282m--2551.246247mWCRSH 1, Rajasthan
49/==/KNDPKhandip new halt!!  01:38-01:40-2m--2557.355245mWCRState Highway 1, Rajasthan
50/==/SMBJShri Mahabirji (3)X  01:48+2201:50+252m--2564.734240mWCRKarauli, Rajasthan
51/==/HANHindaun City (2)  02:08+1702:10+192m--2574.972230mWCRKarauli, Rajasthan
52/==/FSPFateh Singhpura  02:21+2502:23+272m--2588.171223mWCRState Highway 1, Rajasthan
53/==/DYDumariya (2)•XO  02:32+2902:34+342m--2598.712211mWCRState Highway 1, Rajasthan
54/==/BXNBayana Junction (3)  03:20+603:45+025m--2607.754198mWCRBayana, Rajasthan
55/--/BAMABirambad (1)  03:51 03:50-03:52-1 2m12612.256196mNCRDumariya, Rajasthan
56/--/BRBandh Bareta (1)  03:58 03:57+703:59+71 2m12616.957203mNCRDumariya, Rajasthan
57/--/NGLTNaglatula (1)  04:06 04:05-04:07-1 2m12622.663209mNCRBayana, Rajasthan
58/--/BIQBansi Paharpur (1)  04:14 04:13+704:15+71 2m12628.958216mNCRRupbas, Rajasthan
59/--/DXKDhana Kherli (1)  04:22 04:21-04:23-1 2m12634.762192mNCRFatehpur Sikri, Uttar Pradesh
60/--/RBSRupbas (2)  04:31 04:30+704:32+81 2m--2641.946178mNCRJAGNER ROAD, Rajasthan
61/--/AEDAulenda (1)  04:40 04:39-04:41-1 2m12647.266179mNCRKiraoli, Uttar Pradesh
62/--/FTSFatehpur Sikri (2)  04:50 04:49+604:51+81 2m--2656.144176mNCRAgra, Uttar Pradesh
63/--/SNPRSingarpur (1)X  04:59 04:58-05:00-1 2m12661.273168mNCRRupbas, Rajasthan
64/--/KLBKiraoli (1)  05:07 05:06+605:08+61 2m12668.561174mNCRKiraoli, Uttar Pradesh
65/--/MIQMirhakur (1)  05:17 05:16+505:18+41 2m12676.645172mNCRIdgah Agra, Uttar Pradesh
66/--/PTLIPathauli (1)  05:27 05:26+405:28+31 2m12682.557174mNCRAgra Fort, Uttar Pradesh
67/-=/IDHIdgah Agra Junction (3)  05:36+505:38+82m--2690.16168mNCRAgra, Uttar Pradesh
68/==/AFAgra Fort (3)  06:00+0-22692.2-170mNCRRakabganj, Uttar Pradesh
Scroll to Top
Scroll to Bottom